Vancouver, WA

6:33 PM PDT on September 26, 2016 (GMT -0700)
Pearson

Weather History for KVUO - November, 2012

Change the Weather History Date:

Saturday, November 24, 2012

  Actual Average Record
Temperature  
Mean Temperature 43 °F 44 °F  
Max Temperature 52 °F 51 °F 66 °F (1936)
Min Temperature 34 °F 38 °F 8 °F (1985)
Degree Days  
Heating Degree Days 22    
Month to date heating degree days 376  
Since 1 July heating degree days 695  
Cooling Degree Days 0    
Month to date cooling degree days 0  
Year to date cooling degree days 398  
Moisture  
Dew Point 41 °F    
Average Humidity 84    
Maximum Humidity 96    
Minimum Humidity 71    
Precipitation  
Precipitation 0.12 in 0.21 in 2.00 in (1960)
Month to date precipitation 6.12 4.56  
Year to date precipitation 37.28 31.02  
Snow  
Snow 0.00 in - - ()
Month to date snowfall 0.0  
Snow Depth 0.00 in    
Sea Level Pressure  
Sea Level Pressure 30.23 in    
Wind  
Wind Speed 1 mph (NW)    
Max Wind Speed 7 mph    
Max Gust Speed 10 mph    
Visibility 5 miles    
Events Fog , Rain    
T = Trace of Precipitation, MM = Missing Value Source: NWS Daily Summary

Daily Weather History Graph

Daily Weather History Graph

Search for Another Location

Airport or City:

Trip Planner

Search our weather history database for the weather conditions in past years. The results will help you decide how hot, cold, wet, or windy it might be!

Date:

Astronomy

Nov. 24, 2012 Rise Set
Actual Time 7:22 AM PST 4:31 PM PST
Civil Twilight 6:49 AM PST 5:04 PM PST
Nautical Twilight 6:13 AM PST 5:41 PM PST
Astronomical Twilight 5:37 AM PST 6:16 PM PST
Moon 2:26 PM PST (11/24) 3:36 AM PST (11/24)
Length of Visible Light 10h 15m
Length of Day
9h 08m
Waxing Gibbous, 88% of the Moon is Illuminated
Nov 24
Waxing Gibbous
Nov 28
Full
Dec 6
Last Quarter
Dec 13
New
Dec 19
First Quarter

Hourly Weather History & Observations

Time (PST) Temp. Dew Point Humidity Pressure Visibility Wind Dir Wind Speed Gust Speed Precip Events Conditions
12:14 AM 51.8 °F 50.0 °F 94% 30.16 in 10.0 mi WNW 5.8 mph - 0.02 in Rain Light Rain
12:23 AM 51.8 °F 50.0 °F 94% 30.16 in 10.0 mi NW 5.8 mph - 0.02 in   Overcast
12:53 AM 51.1 °F 48.9 °F 92% 30.16 in 7.0 mi NW 4.6 mph - 0.03 in Rain Light Rain
1:12 AM 51.8 °F 48.2 °F 88% 30.16 in 2.5 mi NW 4.6 mph - 0.06 in Rain Rain
1:16 AM 51.8 °F 48.2 °F 88% 30.16 in 3.0 mi WNW 4.6 mph - 0.07 in Rain Light Rain
1:53 AM 50.0 °F 48.9 °F 96% 30.18 in 5.0 mi WNW 5.8 mph - 0.11 in Rain Light Rain
2:40 AM 50.0 °F 48.2 °F 94% 30.19 in 10.0 mi Calm Calm - 0.00 in   Overcast
2:53 AM 50.0 °F 48.0 °F 93% 30.20 in 10.0 mi Calm Calm - 0.00 in   Overcast
3:53 AM 48.9 °F 46.9 °F 93% 30.20 in 10.0 mi West 3.5 mph - N/A   Overcast
4:37 AM 48.2 °F 46.4 °F 93% 30.21 in 10.0 mi NW 3.5 mph - N/A   Overcast
4:53 AM 48.9 °F 46.0 °F 90% 30.22 in 10.0 mi NW 3.5 mph - N/A   Overcast
5:28 AM 48.2 °F 46.4 °F 93% 30.22 in 10.0 mi Calm Calm - N/A   Overcast
5:53 AM 46.9 °F 45.0 °F 93% 30.22 in 8.0 mi Calm Calm - N/A   Mostly Cloudy
6:02 AM 46.4 °F 44.6 °F 93% 30.22 in 1.8 mi Calm Calm - N/A   Mostly Cloudy
6:10 AM 46.4 °F 44.6 °F 93% 30.22 in 3.0 mi Calm Calm - N/A   Mostly Cloudy
6:53 AM 46.0 °F 44.1 °F 93% 30.22 in 10.0 mi Calm Calm - N/A   Clear
7:53 AM 44.1 °F 43.0 °F 96% 30.24 in 1.2 mi Calm Calm - N/A   Clear
7:59 AM 44.6 °F 42.8 °F 93% 30.23 in 0.5 mi Calm Calm - N/A Fog Fog
8:14 AM 44.6 °F 42.8 °F 93% 30.24 in 1.0 mi Calm Calm - N/A   Clear
8:19 AM 44.6 °F 42.8 °F 93% 30.24 in 2.5 mi Calm Calm - N/A   Clear
8:26 AM 44.6 °F 42.8 °F 93% 30.24 in 4.0 mi Calm Calm - N/A   Clear
8:53 AM 46.0 °F 45.0 °F 96% 30.25 in 6.0 mi Calm Calm - N/A   Clear
9:53 AM 50.0 °F 45.0 °F 83% 30.25 in 10.0 mi Calm Calm - N/A   Clear
10:53 AM 50.0 °F 43.0 °F 77% 30.25 in 10.0 mi NW 3.5 mph - N/A   Clear
11:53 AM 50.0 °F 43.0 °F 77% 30.24 in 10.0 mi WNW 3.5 mph - N/A   Clear
12:53 PM 51.1 °F 43.0 °F 74% 30.24 in 10.0 mi Calm Calm - N/A   Clear
1:53 PM 51.1 °F 44.1 °F 77% 30.23 in 10.0 mi WNW 3.5 mph - N/A   Clear
2:53 PM 51.1 °F 44.1 °F 77% 30.22 in 10.0 mi Calm Calm - N/A   Clear
3:53 PM 50.0 °F 42.1 °F 74% 30.22 in 10.0 mi NW 3.5 mph - N/A   Clear
4:53 PM 46.9 °F 43.0 °F 86% 30.22 in 10.0 mi Calm Calm - N/A   Mostly Cloudy
5:53 PM 48.0 °F 43.0 °F 83% 30.22 in 10.0 mi Calm Calm - 0.00 in   Mostly Cloudy
6:53 PM 44.1 °F 41.0 °F 89% 30.22 in 10.0 mi Calm Calm - N/A   Mostly Cloudy
7:53 PM 43.0 °F 41.0 °F 93% 30.22 in 10.0 mi Calm Calm - N/A   Overcast
8:53 PM 39.9 °F 37.9 °F 93% 30.23 in 10.0 mi Calm Calm - N/A   Clear
9:19 PM 39.2 °F 37.4 °F 93% 30.23 in 1.8 mi Calm Calm - N/A   Clear
9:27 PM 39.2 °F 37.4 °F 93% 30.23 in 1.0 mi Calm Calm - N/A   Clear
9:32 PM 39.2 °F 37.4 °F 93% 30.23 in 2.0 mi Calm Calm - N/A   Clear
9:40 PM 39.2 °F 37.4 °F 93% 30.24 in 9.0 mi Calm Calm - N/A   Clear
9:53 PM 39.0 °F 37.0 °F 93% 30.24 in 6.0 mi Calm Calm - N/A   Clear
10:11 PM 37.4 °F 35.6 °F 93% 30.24 in 1.8 mi Calm Calm - N/A   Clear
10:13 PM 37.4 °F 35.6 °F 93% 30.24 in 1.0 mi Calm Calm - N/A   Mist
10:21 PM 35.6 °F 33.8 °F 93% 30.24 in 0.5 mi Calm Calm - N/A Fog Fog
10:41 PM 35.6 °F 33.8 °F 93% 30.25 in 1.2 mi Calm Calm - N/A   Partly Cloudy
10:53 PM 36.0 °F 34.0 °F 93% 30.25 in 1.2 mi Calm Calm - N/A   Scattered Clouds
10:57 PM 35.6 °F 33.8 °F 93% 30.25 in 2.5 mi Calm Calm - N/A   Scattered Clouds
11:04 PM 35.6 °F 33.8 °F 93% 30.25 in 1.2 mi Calm Calm - N/A   Scattered Clouds
11:06 PM 33.8 °F 33.8 °F 100% 30.25 in 0.8 mi Calm Calm - N/A   Mist
11:16 PM 35.6 °F 33.8 °F 93% 30.25 in 0.2 mi Calm Calm - N/A Fog Fog
11:22 PM 35.6 °F 33.8 °F 93% 30.25 in 1.0 mi Calm Calm - N/A   Mist
11:24 PM 35.6 °F 33.8 °F 93% 30.25 in 1.5 mi Calm Calm - N/A   Scattered Clouds
11:31 PM 35.6 °F 33.8 °F 93% 30.25 in 1.0 mi Calm Calm - N/A   Mist
11:37 PM 35.6 °F 33.8 °F 93% 30.26 in 0.8 mi Calm Calm - N/A   Mist
11:42 PM 35.6 °F 33.8 °F 93% 30.26 in 1.0 mi Calm Calm - N/A   Clear
11:53 PM 35.1 °F 33.1 °F 92% 30.26 in 0.5 mi Calm Calm - N/A Fog Fog